Weather Roundup
Issued by NWS Springfield, MO

Home | Current Version | Previous Version | Text Only | Print | Product List | Glossary On
Versions: 1 2 3 4 5 6 7 8 9 10 11 12 13 14 15 16 17 18 19 20 21 22 23 24 25 26 27 28 29 30 31 32 33 34 35 36 37 38 39 40 41 42 43 44 45 46 47 48 49 50
000
NZUS99 KSGF 260707
HRRSGF

HOURLY WEATHER
NATIONAL WEATHER SERVICE SPRINGFIELD MO
200 AM CDT WED APR 26 2017

......SGF CWA......

CITY           SKY/WX    TMP DP  RH WIND       PRES   REMARKS
SPRINGFIELD    TSTM      58  56  93 SW18G44   29.62R VSB 3/4
JOPLIN         RAIN      61  60  97 E9        29.49F
WEST PLAINS    MOCLDY    66  55  67 S6        29.55R
ROLLA          PTCLDY    66  55  67 S12       29.47F
OSAGE BEACH    CLOUDY    68  57  68 W12       29.49R
BRANSON        CLOUDY    66  61  82 W21G30    29.64R HAZE

......SURROUNDING SGF CWA......

CITY           SKY/WX    TMP DP  RH WIND       PRES   REMARKS
CHANUTE        CLOUDY    52  49  89 N13       29.50R
PARSONS        LGT RAIN  54  52  93 N15G26    29.42F
COFFEYVILLE    CLOUDY    56  53  90 NW18      29.47S
EMPORIA        LGT RAIN  46  45  96 NW15G24   29.56R
GROVE OK       CLOUDY    61  61 100 SE10G16   29.44F
SILOAM SPRINGS CLOUDY    57  52  82 S9        29.51F THUNDER
HARRISON AR    CLOUDY    69  62  78 SW5       29.55R
NEAR YELLVILLE CLOUDY   N/A N/A N/A SE3       29.50R

......KANSAS AND MISSOURI......

CITY           SKY/WX    TMP DP  RH WIND       PRES   REMARKS
KANSAS CTY INT LGT RAIN  48  47  96 NW9       29.51F
DOWNTOWN KC    LGT RAIN  51  48  89 N8        29.48F
COLUMBIA       CLOUDY    64  57  78 N6        29.46F
SEDALIA        RAIN      63  63 100 W6        29.48R FOG
ST JOSEPH      LGT RAIN  47  45  93 NW14      29.54R
ST LOUIS       PTCLDY    71  51  49 S10       29.49F
SPIRIT OF STL  PTCLDY    70  53  54 S7        29.47F
KIRKSVILLE     CLOUDY    60  56  86 E3        29.43F
WICHITA        LGT RAIN  46  42  86 N17       29.59R
TOPEKA         CLOUDY    47  45  93 N13       29.54F
OLATHE         LGT RAIN  49  49 100 N12       29.48F FOG

......TENNESSEE......

CITY           SKY/WX    TMP DP  RH WIND       PRES   REMARKS
MEMPHIS        CLOUDY    66  55  67 S7        29.61F
NASHVILLE      CLEAR     60  55  83 S5        29.69R

......ARKANSAS.......

CITY           SKY/WX    TMP DP  RH WIND       PRES   REMARKS
FAYETTEVILLE   TSTM      58  57  97 SW16G23   29.58R FOG
FT SMITH       CLOUDY    73  63  70 N6        29.49R
LITTLE ROCK    CLOUDY    72  64  76 S12G21    29.56R

......OKLAHOMA.......

CITY           SKY/WX    TMP DP  RH WIND       PRES   REMARKS
TULSA          CLOUDY    60  59  96 NW3       29.46R
PONCA CITY     CLOUDY    51  44  77 N13       29.54R
MCALESTER      TSTM      67  64  90 SE3       29.45F
OKLAHOMA CITY  CLOUDY    55  50  83 N23       29.50

......IOWA............

CITY           SKY/WX    TMP DP  RH WIND       PRES   REMARKS
DES MOINES     LGT RAIN  48  45  89 NW13      29.47F
QUAD CITIES    CLOUDY    71  49  45 S10       29.42F

......ILLINOIS........

CITY           SKY/WX    TMP DP  RH WIND       PRES   REMARKS
QUINCY         CLOUDY    69  52  54 S10       29.45S
CHICAGO        CLOUDY    68  54  60 S15       29.51F




USA.gov is the U.S. government's official web portal to all federal, state and local government web resources and services.